DELTA 1 DEB, 12537

Orbit data source: Space-Track

DELTA 1 DEB, 12537 is space debris in SSO originally from a launch on Thu, 29 Jul 1976 UTC launched from the Air Force Western Test Range (AFWTR). Debris objects in space refer to the collection of defunct objects orbiting the Earth. Examples of debris include non-operational satellites, rocket bodies, and fragments generated from explosions, collisions, or faulty payload assembly.

Loading next visibility...
Identifier
12537, 1976-077DS
Orbit
SSO
Country
Flag of USUS
Related business
Manufacturer
Unknown
Mission
Spacecraft
Bus & Motor
Unknown
Mass
Unknown
Launch date (UTC)
1976-07-29 (49 years ago)
Launch vehicle
Unknown
Launch site
Air Force Western Test Range (AFWTR)
Object type
Payload
Rocket body
Debris
Shape & HBR
Unknown shape, 0.1 m
Radar Cross Section
Small (<0.1 m²)

Expand to show TLE details & history
Last TLE update: 17 hours ago

TLE from 17 hours ago
0 DELTA 1 DEB
1 12537U 76077DS  25352.25368969 -.00000019  00000-0  24725-3 0  9994
2 12537 102.2874 317.7607 0161208 230.1453 241.2724 12.11595543 14914
Epoch: 2025-12-18T06:05Z
TLE epoch observation values (Epoch: 2025-12-18T06:05:18.789Z)
Latitude
66.89591°
Longitude
-10.14217°
Altitude
1,704.372 km
Speed
7.002 km/s
True Right ascension
11h 13m 11s
True Declination
66° 47' 10"
Sunlit
Object was in daylight at epoch
Visualization orbit readout
Latitude
Unknown
Longitude
Unknown
Altitude
Unknown
Speed
Unknown
Apparent Right ascension
Unknown
Apparent Declination
Unknown
Sunlit
N/A
Visualization observer readout
Local Sidereal Time
21:54:56
Azimuth
Unknown
Elevation
Unknown
Doppler factor
Unknown
Orbital elements
Apogee altitude
1,756.036 km
Perigee altitude
1,497.938 km
Semi-major axis
8,005.124 km
Eccentricity
0.01612
Inclination
102.2874°
RAAN
317.7607°
Arg. of periapsis
230.1453°
True anomaly
239.66822°
Mean anomaly
241.2724°
Eccentric anomaly
240.46874°
Mean motion
3.03034 °/min
Orbital period
118.8 mins
BSTAR
0.00024725
Loading maneuver chart data...
Computing Atmospheric mass density...
Loading historical data...
Loading historical data...
Loading historical data...
Loading historical data...
Loading historical data...
Loading historical data...
Loading historical data...

Documentation

Showing up to 5 results
|